Installation & Licensing

Reply
Member
tonytran09
Posts: 3
Registered: ‎03-03-2010
Message 1 of 2 (174 Views)

REVIT Arch 12 Installation-Help!!

174 Views, 1 Replies
09-16-2011 12:31 PM

Hi guys,

I have tried to installl Revit Arch 12 for 5th times and installation failed at verious stages (during or after the activation process)-Please help to have it this solved asap. I already removed all material library in my computer and disabled Anti-Virus software as well.

Here is the latest message from Revit Arch 12.  Looking forward to hear from you guys.

 

Thanks,

 

Tony

 

2011/8/23:13:50:44 Tony Tran DELL-30805731C4 === Setup started on DELL-30805731C4 by Tony Tran ===
2011/8/23:13:50:44 Tony Tran DELL-30805731C4 Launch
2011/8/23:13:51:54 Tony Tran DELL-30805731C4 === Setup ended ===

2011/8/23:13:50:50 Tony Tran DELL-30805731C4 === Setup started on DELL-30805731C4 by Tony Tran ===
2011/8/23:13:50:50 Tony Tran DELL-30805731C4 Launch
2011/8/23:13:52:01 Tony Tran DELL-30805731C4 PageOpen LaunchDialog  
2011/8/23:13:53:21 Tony Tran DELL-30805731C4 PageOpen LicenseDialog  
2011/8/23:13:55:49 Tony Tran DELL-30805731C4 PageOpen ProductInfoDialog  
2011/8/23:13:56:25 Tony Tran DELL-30805731C4 PageOpen ProductSelectionDialog2  
2011/8/23:13:56:43 Tony Tran DELL-30805731C4 PageOpen FullProgressDialog  
2011/8/23:13:56:43 Tony Tran DELL-30805731C4 Installing Microsoft Visual C++ 2005 Redistributable (x86): C:\Autodesk\Autodesk_Revit_Architecture_2012_English_Win_32-64bit\3rdParty\x86\VCRedist\2005\vcredist_x86.exe /q:a /T:C:\WINDOWS\temp /c:"VCREDI~3.EXE /q:a /c:""msiexec /i vcredist.msi /qn /l*v C:\DOCUME~1\TONYTR~1\LOCALS~1\Temp\vcredist_x86_2005.log"" "
2011/8/23:13:57:16 Tony Tran DELL-30805731C4 Install Microsoft Visual C++ 2005 Redistributable (x86) Succeeded 
2011/8/23:13:57:16 Tony Tran DELL-30805731C4 Installing Microsoft Visual C++ 2010 Redistributable (x86): C:\Autodesk\Autodesk_Revit_Architecture_2012_English_Win_32-64bit\3rdParty\x86\VCRedist\2010\vcredist_x86.exe /q /l C:\DOCUME~1\TONYTR~1\LOCALS~1\Temp\vcredist_x86_2010.log
2011/8/23:13:57:38 Tony Tran DELL-30805731C4 Install Microsoft Visual C++ 2010 Redistributable (x86) Succeeded 
2011/8/23:13:57:38 Tony Tran DELL-30805731C4 Installing .NET Framework Runtime 4.0: C:\Autodesk\Autodesk_Revit_Architecture_2012_English_Win_32-64bit\3rdParty\NET\4\wcu\dotNetFramework\dotNetFx40_Full_x86_x64.exe /q
2011/8/23:14:07:12 Tony Tran DELL-30805731C4 Install .NET Framework Runtime 4.0 Succeeded 
2011/8/23:14:07:13 Tony Tran DELL-30805731C4 Installing Autodesk® Design Review 2012:  TRANSFORMS="C:\DOCUME~1\TONYTR~1\LOCALS~1\Temp\_AI7.tmp\x86\en-us\Components\adr2012\SetupDesignReview2012-standalone.mst" ADSK_EULA_STATUS=#1 ADSK_SOURCE_ROOT="C:\Autodesk\Autodesk_Revit_Architecture_2012_English_Win_32-64bit\" INSTALLDIR="C:\Program Files\Autodesk\Autodesk Design Review 2012\" FILESINUSETEXT="" REBOOT=ReallySuppress ADSK_SETUP_EXE=1

 2011/8/23:14:09:46 Tony Tran DELL-30805731C4 Install Autodesk® Design Review 2012 Succeeded 
2011/8/23:14:09:46 Tony Tran DELL-30805731C4 Installing DirectX® Runtime: C:\Autodesk\Autodesk_Revit_Architecture_2012_English_Win_32-64bit\3rdParty\DirectX\DXSETUP.exe /silent
2011/8/23:14:11:53 Tony Tran DELL-30805731C4 Install DirectX® Runtime Succeeded 
2011/8/23:14:12:03 Tony Tran DELL-30805731C4 Installing Autodesk® Revit® Architecture 2012:  TRANSFORMS="C:\Autodesk\Autodesk_Revit_Architecture_2012_English_Win_32-64bit\x86\en-us\RAC2012\RAC2012.mst;C:\DOCUME~1\TONYTR~1\LOCALS~1\Temp\_AI7.tmp\x86\RAC2012\RAC2012-standalone.mst" MSINEWINSTANCE=1 ADSK_EULA_STATUS=#1 ADSK_SOURCE_ROOT="C:\Autodesk\Autodesk_Revit_Architecture_2012_English_Win_32-64bit\" INSTALLDIR="C:\Program Files\Autodesk\" FILESINUSETEXT="" REBOOT=ReallySuppress ADSK_SETUP_EXE=1

 2011/8/23:14:46:12 Tony Tran DELL-30805731C4 Install Autodesk® Revit® Architecture 2012 Failed Installation aborted, Result=1603
2011/8/23:14:46:13 Tony Tran DELL-30805731C4 Rollback DirectX® Runtime Failed Failure is ignored, Result=1619
2011/8/23:14:47:30 Tony Tran DELL-30805731C4 Rollback Autodesk® Design Review 2012 Succeeded 
2011/8/23:14:47:30 Tony Tran DELL-30805731C4 Rollback .NET Framework Runtime 4.0 Failed Failure is ignored, Result=1619
2011/8/23:14:47:31 Tony Tran DELL-30805731C4 Rollback Microsoft Visual C++ 2010 Redistributable (x86) Failed Installation aborted, Result=1619
2011/8/23:14:47:31 Tony Tran DELL-30805731C4 Rollback Microsoft Visual C++ 2005 Redistributable (x86) Failed Installation aborted, Result=1619
2011/8/23:14:47:36 Tony Tran DELL-30805731C4 PageOpen InstallCompleteDialog  
2011/8/23:14:58:44 Tony Tran DELL-30805731C4 === Setup ended ===

2011/8/26:16:14:12 Tony Tran DELL-30805731C4 === Setup started on DELL-30805731C4 by Tony Tran ===
2011/8/26:16:14:12 Tony Tran DELL-30805731C4 Launch
2011/8/26:16:15:37 Tony Tran DELL-30805731C4 === Setup ended ===

2011/8/26:16:14:15 Tony Tran DELL-30805731C4 === Setup started on DELL-30805731C4 by Tony Tran ===
2011/8/26:16:14:15 Tony Tran DELL-30805731C4 Launch
2011/8/26:16:15:39 Tony Tran DELL-30805731C4 PageOpen LaunchDialog  
2011/8/26:16:16:43 Tony Tran DELL-30805731C4 PageOpen LicenseDialog  
2011/8/26:16:16:58 Tony Tran DELL-30805731C4 PageOpen ProductInfoDialog  
2011/8/26:16:18:20 Tony Tran DELL-30805731C4 === Setup ended ===

2011/8/28:20:09:23 Tony Tran DELL-30805731C4 === Setup started on DELL-30805731C4 by Tony Tran ===
2011/8/28:20:09:23 Tony Tran DELL-30805731C4 Launch
2011/8/28:20:10:50 Tony Tran DELL-30805731C4 === Setup ended ===

2011/8/28:20:09:26 Tony Tran DELL-30805731C4 === Setup started on DELL-30805731C4 by Tony Tran ===
2011/8/28:20:09:26 Tony Tran DELL-30805731C4 Launch
2011/8/28:20:10:53 Tony Tran DELL-30805731C4 PageOpen LaunchDialog  
2011/8/28:20:15:50 Tony Tran DELL-30805731C4 PageOpen LicenseDialog  
2011/8/28:20:16:00 Tony Tran DELL-30805731C4 PageOpen ProductInfoDialog  
2011/8/28:20:34:47 Tony Tran DELL-30805731C4 PageOpen ProductSelectionDialog2  
2011/8/28:20:35:09 Tony Tran DELL-30805731C4 PageOpen FullProgressDialog  
2011/8/28:20:35:09 Tony Tran DELL-30805731C4 Installing Autodesk® Design Review 2012:  TRANSFORMS="C:\DOCUME~1\TONYTR~1\LOCALS~1\Temp\_AI1.tmp\x86\en-us\Components\adr2012\SetupDesignReview2012-standalone.mst" ADSK_EULA_STATUS=#1 ADSK_SOURCE_ROOT="C:\Autodesk\Autodesk_Revit_Architecture_2012_English_Win_32-64bit\" INSTALLDIR="C:\Program Files\Autodesk\Autodesk Design Review 2012\" FILESINUSETEXT="" REBOOT=ReallySuppress ADSK_SETUP_EXE=1

 2011/8/28:20:36:38 Tony Tran DELL-30805731C4 Install Autodesk® Design Review 2012 Succeeded 
2011/8/28:20:36:38 Tony Tran DELL-30805731C4 Installing DirectX® Runtime: C:\Autodesk\Autodesk_Revit_Architecture_2012_English_Win_32-64bit\3rdParty\DirectX\DXSETUP.exe /silent
2011/8/28:20:38:47 Tony Tran DELL-30805731C4 Install DirectX® Runtime Succeeded 
2011/8/28:20:38:51 Tony Tran DELL-30805731C4 Installing Autodesk® Revit® Architecture 2012:  TRANSFORMS="C:\Autodesk\Autodesk_Revit_Architecture_2012_English_Win_32-64bit\x86\en-us\RAC2012\RAC2012.mst;C:\DOCUME~1\TONYTR~1\LOCALS~1\Temp\_AI1.tmp\x86\RAC2012\RAC2012-standalone.mst" MSINEWINSTANCE=1 ADSK_EULA_STATUS=#1 ADSK_SOURCE_ROOT="C:\Autodesk\Autodesk_Revit_Architecture_2012_English_Win_32-64bit\" INSTALLDIR="C:\Program Files\Autodesk\" FILESINUSETEXT="" REBOOT=ReallySuppress ADSK_SETUP_EXE=1

 2011/8/28:20:39:39 Tony Tran DELL-30805731C4 Install Autodesk® Revit® Architecture 2012 Failed Installation aborted, Result=1603
2011/8/28:20:39:39 Tony Tran DELL-30805731C4 Rollback DirectX® Runtime Failed Failure is ignored, Result=1619
2011/8/28:20:41:37 Tony Tran DELL-30805731C4 Rollback Autodesk® Design Review 2012 Succeeded 
2011/8/28:20:41:38 Tony Tran DELL-30805731C4 PageOpen InstallCompleteDialog  
2011/8/28:20:54:02 Tony Tran DELL-30805731C4 === Setup ended ===

2011/9/11:10:08:51 Tony Tran DELL-30805731C4 === Setup started on DELL-30805731C4 by Tony Tran ===
2011/9/11:10:08:51 Tony Tran DELL-30805731C4 Launch
2011/9/11:10:10:33 Tony Tran DELL-30805731C4 === Setup ended ===

2011/9/11:10:08:55 Tony Tran DELL-30805731C4 === Setup started on DELL-30805731C4 by Tony Tran ===
2011/9/11:10:08:55 Tony Tran DELL-30805731C4 Launch
2011/9/11:10:10:36 Tony Tran DELL-30805731C4 PageOpen LaunchDialog  
2011/9/11:19:26:50 Tony Tran DELL-30805731C4 PageOpen LicenseDialog  
2011/9/11:19:26:56 Tony Tran DELL-30805731C4 PageOpen ProductInfoDialog  
2011/9/11:20:22:32 Tony Tran DELL-30805731C4 === Setup ended ===

2011/9/11:22:30:21 Tony Tran DELL-30805731C4 === Setup started on DELL-30805731C4 by Tony Tran ===
2011/9/11:22:30:21 Tony Tran DELL-30805731C4 Launch
2011/9/11:22:31:23 Tony Tran DELL-30805731C4 === Setup ended ===

2011/9/11:22:30:23 Tony Tran DELL-30805731C4 === Setup started on DELL-30805731C4 by Tony Tran ===
2011/9/11:22:30:23 Tony Tran DELL-30805731C4 Launch
2011/9/11:22:31:26 Tony Tran DELL-30805731C4 PageOpen LaunchDialog  
2011/9/11:22:37:21 Tony Tran DELL-30805731C4 PageOpen LicenseDialog  
2011/9/11:22:40:53 Tony Tran DELL-30805731C4 PageOpen ProductInfoDialog  
2011/9/11:22:41:21 Tony Tran DELL-30805731C4 PageOpen ProductSelectionDialog2  
2011/9/11:22:41:42 Tony Tran DELL-30805731C4 PageOpen FullProgressDialog  
2011/9/11:22:41:42 Tony Tran DELL-30805731C4 Installing Autodesk® Design Review 2012:  TRANSFORMS="C:\DOCUME~1\TONYTR~1\LOCALS~1\Temp\_AI3.tmp\x86\en-us\Components\adr2012\SetupDesignReview2012-standalone.mst" ADSK_EULA_STATUS=#1 ADSK_SOURCE_ROOT="C:\Autodesk\Autodesk_Revit_Architecture_2012_English_Win_32-64bit\" INSTALLDIR="C:\Program Files\Autodesk\Autodesk Design Review 2012\" FILESINUSETEXT="" REBOOT=ReallySuppress ADSK_SETUP_EXE=1

 2011/9/11:22:43:34 Tony Tran DELL-30805731C4 Install Autodesk® Design Review 2012 Succeeded 
2011/9/11:22:43:34 Tony Tran DELL-30805731C4 Installing DirectX® Runtime: C:\Autodesk\Autodesk_Revit_Architecture_2012_English_Win_32-64bit\3rdParty\DirectX\DXSETUP.exe /silent
2011/9/11:22:46:13 Tony Tran DELL-30805731C4 Install DirectX® Runtime Succeeded 
2011/9/11:22:46:15 Tony Tran DELL-30805731C4 Installing Autodesk® Revit® Architecture 2012:  TRANSFORMS="C:\Autodesk\Autodesk_Revit_Architecture_2012_English_Win_32-64bit\x86\en-us\RAC2012\RAC2012.mst;C:\DOCUME~1\TONYTR~1\LOCALS~1\Temp\_AI3.tmp\x86\RAC2012\RAC2012-standalone.mst" MSINEWINSTANCE=1 ADSK_EULA_STATUS=#1 ADSK_SOURCE_ROOT="C:\Autodesk\Autodesk_Revit_Architecture_2012_English_Win_32-64bit\" INSTALLDIR="C:\Program Files\Autodesk\" FILESINUSETEXT="" REBOOT=ReallySuppress ADSK_SETUP_EXE=1

 2011/9/11:22:47:18 Tony Tran DELL-30805731C4 Install Autodesk® Revit® Architecture 2012 Failed Installation aborted, Result=1603
2011/9/11:22:47:18 Tony Tran DELL-30805731C4 Rollback DirectX® Runtime Failed Failure is ignored, Result=1619
2011/9/11:22:48:17 Tony Tran DELL-30805731C4 Rollback Autodesk® Design Review 2012 Succeeded 
2011/9/11:22:48:17 Tony Tran DELL-30805731C4 PageOpen InstallCompleteDialog  
2011/9/11:23:16:16 Tony Tran DELL-30805731C4 === Setup ended ===

2011/9/14:16:02:33 Tony Tran DELL-30805731C4 === Setup started on DELL-30805731C4 by Tony Tran ===
2011/9/14:16:02:33 Tony Tran DELL-30805731C4 Launch
2011/9/14:16:04:04 Tony Tran DELL-30805731C4 === Setup ended ===

2011/9/14:16:02:36 Tony Tran DELL-30805731C4 === Setup started on DELL-30805731C4 by Tony Tran ===
2011/9/14:16:02:36 Tony Tran DELL-30805731C4 Launch
2011/9/14:16:04:09 Tony Tran DELL-30805731C4 PageOpen LaunchDialog  
2011/9/14:16:06:21 Tony Tran DELL-30805731C4 PageOpen LicenseDialog  
2011/9/14:16:06:29 Tony Tran DELL-30805731C4 PageOpen ProductInfoDialog  
2011/9/14:16:07:23 Tony Tran DELL-30805731C4 PageOpen ProductSelectionDialog2  
2011/9/14:16:07:33 Tony Tran DELL-30805731C4 PageOpen FullProgressDialog  
2011/9/14:16:07:33 Tony Tran DELL-30805731C4 Installing Autodesk® Design Review 2012:  TRANSFORMS="C:\DOCUME~1\TONYTR~1\LOCALS~1\Temp\_AI35.tmp\x86\en-us\Components\adr2012\SetupDesignReview2012-standalone.mst" ADSK_EULA_STATUS=#1 ADSK_SOURCE_ROOT="C:\Autodesk\Autodesk_Revit_Architecture_2012_English_Win_32-64bit\" INSTALLDIR="C:\Program Files\Autodesk\Autodesk Design Review 2012\" FILESINUSETEXT="" REBOOT=ReallySuppress ADSK_SETUP_EXE=1

 2011/9/14:16:10:41 Tony Tran DELL-30805731C4 Install Autodesk® Design Review 2012 Succeeded 
2011/9/14:16:10:41 Tony Tran DELL-30805731C4 Installing DirectX® Runtime: C:\Autodesk\Autodesk_Revit_Architecture_2012_English_Win_32-64bit\3rdParty\DirectX\DXSETUP.exe /silent
2011/9/14:16:14:06 Tony Tran DELL-30805731C4 Install DirectX® Runtime Succeeded 
2011/9/14:16:14:29 Tony Tran DELL-30805731C4 Installing Autodesk® Revit® Architecture 2012:  TRANSFORMS="C:\Autodesk\Autodesk_Revit_Architecture_2012_English_Win_32-64bit\x86\en-us\RAC2012\RAC2012.mst;C:\DOCUME~1\TONYTR~1\LOCALS~1\Temp\_AI35.tmp\x86\RAC2012\RAC2012-standalone.mst" MSINEWINSTANCE=1 ADSK_EULA_STATUS=#1 ADSK_SOURCE_ROOT="C:\Autodesk\Autodesk_Revit_Architecture_2012_English_Win_32-64bit\" INSTALLDIR="C:\Program Files\Autodesk\" FILESINUSETEXT="" REBOOT=ReallySuppress ADSK_SETUP_EXE=1

 2011/9/14:16:15:37 Tony Tran DELL-30805731C4 Install Autodesk® Revit® Architecture 2012 Failed Installation aborted, Result=1603
2011/9/14:16:15:39 Tony Tran DELL-30805731C4 Rollback DirectX® Runtime Failed Failure is ignored, Result=1619
2011/9/14:16:18:16 Tony Tran DELL-30805731C4 Rollback Autodesk® Design Review 2012 Succeeded 
2011/9/14:16:18:19 Tony Tran DELL-30805731C4 PageOpen InstallCompleteDialog  
2011/9/14:16:18:59 Tony Tran DELL-30805731C4 === Setup ended ===

2011/9/14:17:16:26 Tony Tran DELL-30805731C4 === Setup started on DELL-30805731C4 by Tony Tran ===
2011/9/14:17:16:26 Tony Tran DELL-30805731C4 Launch
2011/9/14:17:17:21 Tony Tran DELL-30805731C4 === Setup ended ===

2011/9/14:17:16:28 Tony Tran DELL-30805731C4 === Setup started on DELL-30805731C4 by Tony Tran ===
2011/9/14:17:16:28 Tony Tran DELL-30805731C4 Launch
2011/9/14:17:17:22 Tony Tran DELL-30805731C4 PageOpen LaunchDialog  
2011/9/14:17:18:17 Tony Tran DELL-30805731C4 PageOpen LicenseDialog  
2011/9/14:17:18:22 Tony Tran DELL-30805731C4 PageOpen ProductInfoDialog  
2011/9/14:17:18:47 Tony Tran DELL-30805731C4 PageOpen ProductSelectionDialog2  
2011/9/14:17:18:53 Tony Tran DELL-30805731C4 PageOpen FullProgressDialog  
2011/9/14:17:18:53 Tony Tran DELL-30805731C4 Installing Autodesk® Design Review 2012:  TRANSFORMS="C:\DOCUME~1\TONYTR~1\LOCALS~1\Temp\_AI167.tmp\x86\en-us\Components\adr2012\SetupDesignReview2012-standalone.mst" ADSK_EULA_STATUS=#1 ADSK_SOURCE_ROOT="C:\Autodesk\Autodesk_Revit_Architecture_2012_English_Win_32-64bit\" INSTALLDIR="C:\Program Files\Autodesk\Autodesk Design Review 2012\" FILESINUSETEXT="" REBOOT=ReallySuppress ADSK_SETUP_EXE=1

 2011/9/14:17:20:18 Tony Tran DELL-30805731C4 Install Autodesk® Design Review 2012 Succeeded 
2011/9/14:17:20:18 Tony Tran DELL-30805731C4 Installing DirectX® Runtime: C:\Autodesk\Autodesk_Revit_Architecture_2012_English_Win_32-64bit\3rdParty\DirectX\DXSETUP.exe /silent
2011/9/14:17:21:28 Tony Tran DELL-30805731C4 Install DirectX® Runtime Succeeded 
2011/9/14:17:21:31 Tony Tran DELL-30805731C4 Installing Autodesk® Revit® Architecture 2012:  TRANSFORMS="C:\Autodesk\Autodesk_Revit_Architecture_2012_English_Win_32-64bit\x86\en-us\RAC2012\RAC2012.mst;C:\DOCUME~1\TONYTR~1\LOCALS~1\Temp\_AI167.tmp\x86\RAC2012\RAC2012-standalone.mst" MSINEWINSTANCE=1 ADSK_EULA_STATUS=#1 ADSK_SOURCE_ROOT="C:\Autodesk\Autodesk_Revit_Architecture_2012_English_Win_32-64bit\" INSTALLDIR="C:\Program Files\Autodesk\" FILESINUSETEXT="" REBOOT=ReallySuppress ADSK_SETUP_EXE=1

 2011/9/14:17:22:03 Tony Tran DELL-30805731C4 Install Autodesk® Revit® Architecture 2012 Failed Installation aborted, Result=1603
2011/9/14:17:22:04 Tony Tran DELL-30805731C4 Rollback DirectX® Runtime Failed Failure is ignored, Result=1619
2011/9/14:17:23:30 Tony Tran DELL-30805731C4 Rollback Autodesk® Design Review 2012 Succeeded 
2011/9/14:17:23:31 Tony Tran DELL-30805731C4 PageOpen InstallCompleteDialog  
2011/9/14:17:24:07 Tony Tran DELL-30805731C4 === Setup ended ===

2011/9/14:19:48:15 Tony Tran DELL-30805731C4 === Setup started on DELL-30805731C4 by Tony Tran ===
2011/9/14:19:48:15 Tony Tran DELL-30805731C4 Launch
2011/9/14:19:49:11 Tony Tran DELL-30805731C4 === Setup ended ===

2011/9/14:19:48:18 Tony Tran DELL-30805731C4 === Setup started on DELL-30805731C4 by Tony Tran ===
2011/9/14:19:48:18 Tony Tran DELL-30805731C4 Launch
2011/9/14:19:49:12 Tony Tran DELL-30805731C4 PageOpen LaunchDialog  
2011/9/14:19:51:44 Tony Tran DELL-30805731C4 PageOpen LicenseDialog  
2011/9/14:19:51:52 Tony Tran DELL-30805731C4 PageOpen ProductInfoDialog  
2011/9/14:19:52:45 Tony Tran DELL-30805731C4 PageOpen ProductSelectionDialog2  
2011/9/14:19:52:51 Tony Tran DELL-30805731C4 PageOpen FullProgressDialog  
2011/9/14:19:52:51 Tony Tran DELL-30805731C4 Installing Autodesk® Design Review 2012:  TRANSFORMS="C:\DOCUME~1\TONYTR~1\LOCALS~1\Temp\_AI9F.tmp\x86\en-us\Components\adr2012\SetupDesignReview2012-standalone.mst" ADSK_EULA_STATUS=#1 ADSK_SOURCE_ROOT="C:\Autodesk\Autodesk_Revit_Architecture_2012_English_Win_32-64bit\" INSTALLDIR="C:\Program Files\Autodesk\Autodesk Design Review 2012\" FILESINUSETEXT="" REBOOT=ReallySuppress ADSK_SETUP_EXE=1

 2011/9/14:19:54:08 Tony Tran DELL-30805731C4 Install Autodesk® Design Review 2012 Succeeded 
2011/9/14:19:54:08 Tony Tran DELL-30805731C4 Installing DirectX® Runtime: C:\Autodesk\Autodesk_Revit_Architecture_2012_English_Win_32-64bit\3rdParty\DirectX\DXSETUP.exe /silent
2011/9/14:19:55:27 Tony Tran DELL-30805731C4 Install DirectX® Runtime Succeeded 
2011/9/14:19:55:28 Tony Tran DELL-30805731C4 Installing Autodesk® Revit® Architecture 2012:  TRANSFORMS="C:\Autodesk\Autodesk_Revit_Architecture_2012_English_Win_32-64bit\x86\en-us\RAC2012\RAC2012.mst;C:\DOCUME~1\TONYTR~1\LOCALS~1\Temp\_AI9F.tmp\x86\RAC2012\RAC2012-standalone.mst" MSINEWINSTANCE=1 ADSK_EULA_STATUS=#1 ADSK_SOURCE_ROOT="C:\Autodesk\Autodesk_Revit_Architecture_2012_English_Win_32-64bit\" INSTALLDIR="C:\Program Files\Autodesk\" FILESINUSETEXT="" REBOOT=ReallySuppress ADSK_SETUP_EXE=1

 2011/9/14:19:56:07 Tony Tran DELL-30805731C4 Install Autodesk® Revit® Architecture 2012 Failed Installation aborted, Result=1603
2011/9/14:19:56:07 Tony Tran DELL-30805731C4 Rollback DirectX® Runtime Failed Failure is ignored, Result=1619
2011/9/14:19:56:53 Tony Tran DELL-30805731C4 Rollback Autodesk® Design Review 2012 Succeeded 
2011/9/14:19:56:54 Tony Tran DELL-30805731C4 PageOpen InstallCompleteDialog  
2011/9/14:19:58:19 Tony Tran DELL-30805731C4 === Setup ended ===

2011/9/14:20:31:46 Tony Tran DELL-30805731C4 === Setup started on DELL-30805731C4 by Tony Tran ===
2011/9/14:20:31:46 Tony Tran DELL-30805731C4 Launch
2011/9/14:20:32:37 Tony Tran DELL-30805731C4 === Setup ended ===

2011/9/14:20:31:48 Tony Tran DELL-30805731C4 === Setup started on DELL-30805731C4 by Tony Tran ===
2011/9/14:20:31:48 Tony Tran DELL-30805731C4 Launch
2011/9/14:20:32:38 Tony Tran DELL-30805731C4 PageOpen LaunchDialog  
2011/9/14:20:41:32 Tony Tran DELL-30805731C4 PageOpen LicenseDialog  
2011/9/14:20:41:48 Tony Tran DELL-30805731C4 PageOpen ProductInfoDialog  
2011/9/14:20:42:11 Tony Tran DELL-30805731C4 PageOpen ProductSelectionDialog2  
2011/9/14:20:42:15 Tony Tran DELL-30805731C4 PageOpen FullProgressDialog  
2011/9/14:20:42:16 Tony Tran DELL-30805731C4 Installing Autodesk® Design Review 2012:  TRANSFORMS="C:\DOCUME~1\TONYTR~1\LOCALS~1\Temp\_AI1AF.tmp\x86\en-us\Components\adr2012\SetupDesignReview2012-standalone.mst" ADSK_EULA_STATUS=#1 ADSK_SOURCE_ROOT="C:\Autodesk\Autodesk_Revit_Architecture_2012_English_Win_32-64bit\" INSTALLDIR="C:\Program Files\Autodesk\Autodesk Design Review 2012\" FILESINUSETEXT="" REBOOT=ReallySuppress ADSK_SETUP_EXE=1

 2011/9/14:20:43:21 Tony Tran DELL-30805731C4 Install Autodesk® Design Review 2012 Succeeded 
2011/9/14:20:43:21 Tony Tran DELL-30805731C4 Installing DirectX® Runtime: C:\Autodesk\Autodesk_Revit_Architecture_2012_English_Win_32-64bit\3rdParty\DirectX\DXSETUP.exe /silent
2011/9/14:20:44:30 Tony Tran DELL-30805731C4 Install DirectX® Runtime Succeeded 
2011/9/14:20:44:31 Tony Tran DELL-30805731C4 Installing Autodesk® Revit® Architecture 2012:  TRANSFORMS="C:\Autodesk\Autodesk_Revit_Architecture_2012_English_Win_32-64bit\x86\en-us\RAC2012\RAC2012.mst;C:\DOCUME~1\TONYTR~1\LOCALS~1\Temp\_AI1AF.tmp\x86\RAC2012\RAC2012-standalone.mst" MSINEWINSTANCE=1 ADSK_EULA_STATUS=#1 ADSK_SOURCE_ROOT="C:\Autodesk\Autodesk_Revit_Architecture_2012_English_Win_32-64bit\" INSTALLDIR="C:\Program Files\Autodesk\" FILESINUSETEXT="" REBOOT=ReallySuppress ADSK_SETUP_EXE=1

 2011/9/14:20:45:08 Tony Tran DELL-30805731C4 Install Autodesk® Revit® Architecture 2012 Failed Installation aborted, Result=1603
2011/9/14:20:45:08 Tony Tran DELL-30805731C4 Rollback DirectX® Runtime Failed Failure is ignored, Result=1619
2011/9/14:20:45:46 Tony Tran DELL-30805731C4 Rollback Autodesk® Design Review 2012 Succeeded 
2011/9/14:20:45:47 Tony Tran DELL-30805731C4 PageOpen InstallCompleteDialog  
2011/9/14:20:49:37 Tony Tran DELL-30805731C4 === Setup ended ===

2011/9/14:21:28:08 Tony Tran DELL-30805731C4 === Setup started on DELL-30805731C4 by Tony Tran ===
2011/9/14:21:28:08 Tony Tran DELL-30805731C4 Launch
2011/9/14:21:28:56 Tony Tran DELL-30805731C4 === Setup ended ===

2011/9/14:21:28:10 Tony Tran DELL-30805731C4 === Setup started on DELL-30805731C4 by Tony Tran ===
2011/9/14:21:28:10 Tony Tran DELL-30805731C4 Launch
2011/9/14:21:28:58 Tony Tran DELL-30805731C4 PageOpen LaunchDialog  
2011/9/14:21:30:19 Tony Tran DELL-30805731C4 PageOpen LicenseDialog  
2011/9/14:21:30:24 Tony Tran DELL-30805731C4 PageOpen ProductInfoDialog  
2011/9/14:21:30:56 Tony Tran DELL-30805731C4 PageOpen ProductSelectionDialog2  
2011/9/14:21:31:09 Tony Tran DELL-30805731C4 PageOpen FullProgressDialog  
2011/9/14:21:31:10 Tony Tran DELL-30805731C4 Installing Autodesk® Design Review 2012:  TRANSFORMS="C:\DOCUME~1\TONYTR~1\LOCALS~1\Temp\_AI2.tmp\x86\en-us\Components\adr2012\SetupDesignReview2012-standalone.mst" ADSK_EULA_STATUS=#1 ADSK_SOURCE_ROOT="C:\Autodesk\Autodesk_Revit_Architecture_2012_English_Win_32-64bit\" INSTALLDIR="C:\Program Files\Autodesk\Autodesk Design Review 2012\" FILESINUSETEXT="" REBOOT=ReallySuppress ADSK_SETUP_EXE=1

 2011/9/14:21:32:12 Tony Tran DELL-30805731C4 Install Autodesk® Design Review 2012 Succeeded 
2011/9/14:21:32:12 Tony Tran DELL-30805731C4 Installing DirectX® Runtime: C:\Autodesk\Autodesk_Revit_Architecture_2012_English_Win_32-64bit\3rdParty\DirectX\DXSETUP.exe /silent
2011/9/14:21:33:33 Tony Tran DELL-30805731C4 Install DirectX® Runtime Succeeded 
2011/9/14:21:33:34 Tony Tran DELL-30805731C4 Installing Autodesk® Revit® Architecture 2012:  TRANSFORMS="C:\Autodesk\Autodesk_Revit_Architecture_2012_English_Win_32-64bit\x86\en-us\RAC2012\RAC2012.mst;C:\DOCUME~1\TONYTR~1\LOCALS~1\Temp\_AI2.tmp\x86\RAC2012\RAC2012-standalone.mst" MSINEWINSTANCE=1 ADSK_EULA_STATUS=#1 ADSK_SOURCE_ROOT="C:\Autodesk\Autodesk_Revit_Architecture_2012_English_Win_32-64bit\" INSTALLDIR="C:\Program Files\Autodesk\" FILESINUSETEXT="" REBOOT=ReallySuppress ADSK_SETUP_EXE=1

 2011/9/14:21:34:06 Tony Tran DELL-30805731C4 Install Autodesk® Revit® Architecture 2012 Failed Installation aborted, Result=1603
2011/9/14:21:34:06 Tony Tran DELL-30805731C4 Rollback DirectX® Runtime Failed Failure is ignored, Result=1619
2011/9/14:21:34:54 Tony Tran DELL-30805731C4 Rollback Autodesk® Design Review 2012 Succeeded 
2011/9/14:21:34:55 Tony Tran DELL-30805731C4 PageOpen InstallCompleteDialog  
2011/9/14:21:41:16 Tony Tran DELL-30805731C4 === Setup ended ===

2011/9/15:15:43:17 Tony Tran DELL-30805731C4 === Setup started on DELL-30805731C4 by Tony Tran ===
2011/9/15:15:43:17 Tony Tran DELL-30805731C4 Launch
2011/9/15:15:44:20 Tony Tran DELL-30805731C4 === Setup ended ===

2011/9/15:15:43:21 Tony Tran DELL-30805731C4 === Setup started on DELL-30805731C4 by Tony Tran ===
2011/9/15:15:43:21 Tony Tran DELL-30805731C4 Launch
2011/9/15:15:44:22 Tony Tran DELL-30805731C4 PageOpen LaunchDialog  
2011/9/15:15:46:17 Tony Tran DELL-30805731C4 PageOpen LicenseDialog  
2011/9/15:15:48:31 Tony Tran DELL-30805731C4 PageOpen ProductInfoDialog  
2011/9/15:15:51:01 Tony Tran DELL-30805731C4 PageOpen ProductSelectionDialog2  
2011/9/15:15:51:10 Tony Tran DELL-30805731C4 PageOpen FullProgressDialog  
2011/9/15:15:51:22 Tony Tran DELL-30805731C4 Installing Autodesk® Design Review 2012:  TRANSFORMS="C:\DOCUME~1\TONYTR~1\LOCALS~1\Temp\_AI53.tmp\x86\en-us\Components\adr2012\SetupDesignReview2012-standalone.mst" ADSK_EULA_STATUS=#1 ADSK_SOURCE_ROOT="C:\Autodesk\Autodesk_Revit_Architecture_2012_English_Win_32-64bit\" INSTALLDIR="C:\Program Files\Autodesk\Autodesk Design Review 2012\" FILESINUSETEXT="" REBOOT=ReallySuppress ADSK_SETUP_EXE=1

 2011/9/15:15:54:07 Tony Tran DELL-30805731C4 Install Autodesk® Design Review 2012 Succeeded 
2011/9/15:15:54:07 Tony Tran DELL-30805731C4 Installing DirectX® Runtime: C:\Autodesk\Autodesk_Revit_Architecture_2012_English_Win_32-64bit\3rdParty\DirectX\DXSETUP.exe /silent
2011/9/15:15:57:49 Tony Tran DELL-30805731C4 Install DirectX® Runtime Succeeded 
2011/9/15:15:57:59 Tony Tran DELL-30805731C4 Installing Autodesk® Revit® Architecture 2012:  TRANSFORMS="C:\Autodesk\Autodesk_Revit_Architecture_2012_English_Win_32-64bit\x86\en-us\RAC2012\RAC2012.mst;C:\DOCUME~1\TONYTR~1\LOCALS~1\Temp\_AI53.tmp\x86\RAC2012\RAC2012-standalone.mst" MSINEWINSTANCE=1 ADSK_EULA_STATUS=#1 ADSK_SOURCE_ROOT="C:\Autodesk\Autodesk_Revit_Architecture_2012_English_Win_32-64bit\" INSTALLDIR="C:\Program Files\Autodesk\" FILESINUSETEXT="" REBOOT=ReallySuppress ADSK_SETUP_EXE=1

 2011/9/15:16:01:38 Tony Tran DELL-30805731C4 Install Autodesk® Revit® Architecture 2012 Failed Installation aborted, Result=1603
2011/9/15:16:01:38 Tony Tran DELL-30805731C4 Rollback DirectX® Runtime Failed Failure is ignored, Result=1619
2011/9/15:16:02:23 Tony Tran DELL-30805731C4 Rollback Autodesk® Design Review 2012 Succeeded 

Product Support
david.lau
Posts: 1,350
Registered: ‎06-18-2008
Message 2 of 2 (162 Views)

Re: REVIT Arch 12 Installation-Help!!

09-17-2011 07:17 AM in reply to: tonytran09

You are not logged in.

Log into access your profile, ask and answer questions, share ideas and more. Haven't signed up yet? Register

Announcements
Are you familiar with the Autodesk Expert Elites? The Expert Elite program is made up of customers that help other customers by sharing knowledge and exemplifying an engaging style of collaboration. To learn more, please visit our Expert Elite website.

Need installation help?

Start with some of our most frequented solutions to get help installing your software.

Ask the Community


Up & Ready Blog

Boldly Install, Configure and Deploy Autodesk Software.

AutodeskHelp Blog

Your one-stop shop for the latest solutions, breaking news, and behind the scenes access to the world of Autodesk support.

Connect with Us

Twitter

Pinterest

Blog

Youtube